"Pseudo-MPEC" for P21lbhf

Created 2021 Sep 20 22:07:17 UT using Find_Orb

Click here for an explanation of pseudo-MPECs

 
 Astrometry: 
     P21lbhf  C2021 09 151=qB5FmR)m5#=C4Astrometrygd:R/t`redacted;lQ_FfJ;BL=mF52
     P21lbhf  C2021 09 15nR:;*C.tK=5lclick[)yE#_k.xkuH,uE28here8ZE,uO)*I^/@MVF52
     P21lbhf  C2021 09 15V0UUhnFvllq:xFfor919,E^lA3v%7Z4WajgqyB_mexplanationCF52

Station data:
(F52) Pan-STARRS 2, Haleakala  (N20.707384 W156.255910)  US/Hawaii. 1.8-m
   Ritchey-Chrétien + CCD.

Orbital elements:  P21lbhf
   Perihelion 2022 Jan 25.562268 +/- 41.7679 TT = 13:29:40 (JD 2459605.062268)
Epoch 2021 Sep 16.0 TT = JDT 2459473.5   Earth MOID: 0.0051   AutoNEOCP
M 226.81450961 +/- 58.869673        (J2000 ecliptic)
n   1.01233805 +/- 0.650526         Peri.  133.29994 +/- 72.597713
a   0.98231854 +/- 0.420815         Node   357.50771 +/- 29.198495
e   0.0415188 +/- 0.258376          Incl.   14.34324 +/- 30.074478
P   0.97/355.61d           H 25.4   G  0.15   U 12.5  SR
q 0.94153376 +/- 0.212347    Q 1.02310331 +/- 20.5234
From 3 observations 2021 Sept. 15 (33.3 min); mean residual 0".15
Residuals in arcseconds: 
210915 F52  .04+  .14-    210915 F52  .08-  .28+    210915 F52  .04+  .14-    

Ephemerides (geocentric):
Date (UTC) HH   RA              Dec         delta   r     elong  mag " sig PA
---- -- -- --  -------------   -----------  ------ ------ -----  --- ---- ---
2021 09 20 22  04 44 52.545   +40 48 46.04  .02042 1.0085 102.1 19.7  70d   2
2021 09 20 23  04 44 46.281   +41 18 39.42  .02044 1.0085 102.0 19.7  69d   1
2021 09 21 00  04 44 39.931   +41 48 29.09  .02047 1.0085 102.0 19.7  66d   1
2021 09 21 01  04 44 33.492   +42 18 14.79  .02049 1.0085 101.9 19.7  65d   1
2021 09 21 02  04 44 26.962   +42 47 56.26  .02051 1.0085 101.9 19.7  65d   0
2021 09 21 03  04 44 20.341   +43 17 33.25  .02054 1.0084 101.8 19.7  64d   0
2021 09 21 04  04 44 13.625   +43 47 05.53  .02057 1.0084 101.8 19.7  64d   0
2021 09 21 05  04 44 06.814   +44 16 32.84  .02060 1.0084 101.7 19.7  63d   0
2021 09 21 06  04 43 59.905   +44 45 54.96  .02063 1.0084 101.7 19.7  63d   0
2021 09 21 07  04 43 52.895   +45 15 11.64  .02066 1.0083 101.6 19.7  62d   0
2021 09 21 08  04 43 45.784   +45 44 22.67  .02070 1.0083 101.6 19.7  62d   0
2021 09 21 09  04 43 38.568   +46 13 27.82  .02073 1.0083 101.5 19.7  61d   0
2021 09 21 10  04 43 31.246   +46 42 26.87  .02077 1.0083 101.5 19.7  61d   0
2021 09 21 11  04 43 23.816   +47 11 19.61  .02081 1.0083 101.4 19.8  60d   0
2021 09 21 12  04 43 16.274   +47 40 05.83  .02085 1.0082 101.4 19.8  59d   0
2021 09 21 13  04 43 08.619   +48 08 45.33  .02089 1.0082 101.3 19.8  59d   0
2021 09 21 14  04 43 00.847   +48 37 17.90  .02093 1.0082 101.3 19.8  58d   0
2021 09 21 15  04 42 52.957   +49 05 43.36  .02097 1.0082 101.2 19.8  58d   0
2021 09 21 16  04 42 44.946   +49 34 01.53  .02102 1.0081 101.1 19.8  57d   0
2021 09 21 17  04 42 36.811   +50 02 12.21  .02107 1.0081 101.1 19.8  57d   0
2021 09 21 18  04 42 28.549   +50 30 15.23  .02111 1.0081 101.0 19.8  56d 179
2021 09 21 19  04 42 20.157   +50 58 10.42  .02116 1.0081 101.0 19.8  56d 179
2021 09 21 20  04 42 11.633   +51 25 57.62  .02121 1.0080 100.9 19.8  55d 179
2021 09 21 21  04 42 02.973   +51 53 36.68  .02127 1.0080 100.8 19.8  54d 179
2021 09 21 22  04 41 54.174   +52 21 07.42  .02132 1.0080 100.8 19.8  54d 179
2021 09 21 23  04 41 45.232   +52 48 29.72  .02138 1.0080 100.7 19.8  53d 179
2021 09 22 00  04 41 36.146   +53 15 43.42  .02143 1.0080 100.7 19.8  53d 179
2021 09 22 01  04 41 26.910   +53 42 48.39  .02149 1.0079 100.6 19.8  52d 179
2021 09 22 02  04 41 17.521   +54 09 44.49  .02155 1.0079 100.5 19.9  52d 179
2021 09 22 03  04 41 07.977   +54 36 31.62  .02161 1.0079 100.5 19.9  51d 179
2021 09 22 04  04 40 58.272   +55 03 09.64  .02167 1.0079 100.4 19.9  51d 178
2021 09 22 05  04 40 48.402   +55 29 38.44  .02173 1.0078 100.3 19.9  50d 178
2021 09 22 06  04 40 38.365   +55 55 57.92  .02180 1.0078 100.3 19.9  49d 178
2021 09 22 07  04 40 28.155   +56 22 07.97  .02186 1.0078 100.2 19.9  49d 178
2021 09 22 08  04 40 17.768   +56 48 08.49  .02193 1.0078 100.1 19.9  48d 178
2021 09 22 09  04 40 07.200   +57 13 59.40  .02200 1.0077 100.1 19.9  48d 178
2021 09 22 10  04 39 56.446   +57 39 40.61  .02207 1.0077 100.0 19.9  47d 177
2021 09 22 11  04 39 45.501   +58 05 12.04  .02214 1.0077  99.9 19.9  47d 177
2021 09 22 12  04 39 34.360   +58 30 33.60  .02221 1.0077  99.9 19.9  46d 177
2021 09 22 13  04 39 23.018   +58 55 45.25  .02228 1.0077  99.8 20.0  45d 177
2021 09 22 14  04 39 11.470   +59 20 46.89  .02236 1.0076  99.7 20.0  45d 177
2021 09 22 15  04 38 59.709   +59 45 38.49  .02243 1.0076  99.7 20.0  44d 176
2021 09 22 16  04 38 47.731   +60 10 19.98  .02251 1.0076  99.6 20.0  44d 176
2021 09 22 17  04 38 35.529   +60 34 51.31  .02259 1.0076  99.5 20.0  43d 176
2021 09 22 18  04 38 23.097   +60 59 12.44  .02266 1.0075  99.5 20.0  43d 176
2021 09 22 19  04 38 10.429   +61 23 23.32  .02274 1.0075  99.4 20.0  42d 176
2021 09 22 20  04 37 57.518   +61 47 23.92  .02282 1.0075  99.3 20.0  39d 175
2021 09 22 21  04 37 44.356   +62 11 14.20  .02291 1.0075  99.3 20.0  39d 175